owner,sensor,date,latitude,longitude,air_pressure(mBar),qcFlag 
WAVCIS,ioos:station:WAVCIS:CSI15:1,2008-04-04T15:00:00Z,28.8332,-90.8320,1009.75,11111222 
WAVCIS,ioos:station:WAVCIS:CSI15:1,2008-04-04T16:00:00Z,28.8332,-90.8320,1009.6,11111222 
WAVCIS,ioos:station:WAVCIS:CSI15:1,2008-04-04T17:00:00Z,28.8332,-90.8320,1008.91,11111222 
WAVCIS,ioos:station:WAVCIS:CSI15:1,2008-04-04T18:00:00Z,28.8332,-90.8320,1008.71,11111222 
WAVCIS,ioos:station:WAVCIS:CSI15:1,2008-04-04T19:00:00Z,28.8332,-90.8320,1008.42,11111222 
WAVCIS,ioos:station:WAVCIS:CSI15:1,2008-04-04T20:00:00Z,28.8332,-90.8320,1007.89,11111222 
WAVCIS,ioos:station:WAVCIS:CSI15:1,2008-04-04T21:00:00Z,28.8332,-90.8320,1006.996,11111222 
WAVCIS,ioos:station:WAVCIS:CSI15:1,2008-04-04T22:00:00Z,28.8332,-90.8320,1006.698,11111222 
WAVCIS,ioos:station:WAVCIS:CSI15:1,2008-04-04T23:00:00Z,28.8332,-90.8320,1006.63,11111222 
WAVCIS,ioos:station:WAVCIS:CSI15:1,2008-04-05T00:00:00Z,28.8332,-90.8320,1006.438,11111222 
WAVCIS,ioos:station:WAVCIS:CSI15:1,2008-04-05T01:00:00Z,28.8332,-90.8320,1006.068,11111222 
WAVCIS,ioos:station:WAVCIS:CSI15:1,2008-04-05T02:00:00Z,28.8332,-90.8320,1006.145,11111222 
WAVCIS,ioos:station:WAVCIS:CSI15:1,2008-04-05T03:00:00Z,28.8332,-90.8320,1006.915,11111222 
WAVCIS,ioos:station:WAVCIS:CSI15:1,2008-04-05T04:00:00Z,28.8332,-90.8320,1006.877,11111222 
WAVCIS,ioos:station:WAVCIS:CSI15:1,2008-04-05T05:00:00Z,28.8332,-90.8320,1006.934,11111222 
WAVCIS,ioos:station:WAVCIS:CSI15:1,2008-04-05T06:00:00Z,28.8332,-90.8320,1006.302,11111222 
WAVCIS,ioos:station:WAVCIS:CSI15:1,2008-04-05T07:00:00Z,28.8332,-90.8320,1006.278,11111222 
WAVCIS,ioos:station:WAVCIS:CSI15:1,2008-04-05T08:00:00Z,28.8332,-90.8320,1006.389,11111222 
WAVCIS,ioos:station:WAVCIS:CSI15:1,2008-04-05T09:00:00Z,28.8332,-90.8320,1005.704,11111222 
WAVCIS,ioos:station:WAVCIS:CSI15:1,2008-04-05T10:00:00Z,28.8332,-90.8320,1005.771,11111222 
WAVCIS,ioos:station:WAVCIS:CSI15:1,2008-04-05T11:00:00Z,28.8332,-90.8320,1005.738,11111222 
WAVCIS,ioos:station:WAVCIS:CSI15:1,2008-04-05T12:00:00Z,28.8332,-90.8320,1005.972,11111222 
WAVCIS,ioos:station:WAVCIS:CSI15:1,2008-04-05T13:00:00Z,28.8332,-90.8320,1006.748,11111222 
WAVCIS,ioos:station:WAVCIS:CSI15:1,2008-04-05T14:00:00Z,28.8332,-90.8320,1007.32,11111222 
WAVCIS,ioos:station:WAVCIS:CSI15:1,2008-04-05T15:00:00Z,28.8332,-90.8320,1007.83,11111222 
WAVCIS,ioos:station:WAVCIS:CSI15:1,2008-04-05T16:00:00Z,28.8332,-90.8320,1008.87,11111222 
WAVCIS,ioos:station:WAVCIS:CSI15:1,2008-04-05T17:00:00Z,28.8332,-90.8320,1009.05,11111222 
WAVCIS,ioos:station:WAVCIS:CSI15:1,2008-04-05T18:00:00Z,28.8332,-90.8320,1008.28,11111222 
WAVCIS,ioos:station:WAVCIS:CSI15:1,2008-04-05T19:00:00Z,28.8332,-90.8320,1007.99,11111222 
WAVCIS,ioos:station:WAVCIS:CSI15:1,2008-04-05T20:00:00Z,28.8332,-90.8320,1007.22,11111222 
WAVCIS,ioos:station:WAVCIS:CSI15:1,2008-04-05T21:00:00Z,28.8332,-90.8320,1007.25,11111222 
WAVCIS,ioos:station:WAVCIS:CSI15:1,2008-04-05T22:00:00Z,28.8332,-90.8320,1007.1,11111222 
WAVCIS,ioos:station:WAVCIS:CSI15:1,2008-04-05T23:00:00Z,28.8332,-90.8320,1007.58,11111222 
WAVCIS,ioos:station:WAVCIS:CSI15:1,2008-04-06T00:00:00Z,28.8332,-90.8320,1008.0,11111222 
WAVCIS,ioos:station:WAVCIS:CSI15:1,2008-04-06T01:00:00Z,28.8332,-90.8320,1007.97,11111222 
WAVCIS,ioos:station:WAVCIS:CSI15:1,2008-04-06T02:00:00Z,28.8332,-90.8320,1008.23,11111222 
WAVCIS,ioos:station:WAVCIS:CSI15:1,2008-04-06T03:00:00Z,28.8332,-90.8320,1008.76,11111222 
WAVCIS,ioos:station:WAVCIS:CSI15:1,2008-04-06T04:00:00Z,28.8332,-90.8320,1008.77,11111222 
WAVCIS,ioos:station:WAVCIS:CSI15:1,2008-04-06T05:00:00Z,28.8332,-90.8320,1008.55,11111222 
WAVCIS,ioos:station:WAVCIS:CSI15:1,2008-04-06T06:00:00Z,28.8332,-90.8320,1008.63,11111222 
WAVCIS,ioos:station:WAVCIS:CSI15:1,2008-04-06T07:00:00Z,28.8332,-90.8320,1007.99,11111222 
WAVCIS,ioos:station:WAVCIS:CSI15:1,2008-04-06T08:00:00Z,28.8332,-90.8320,1007.58,11111222 
WAVCIS,ioos:station:WAVCIS:CSI15:1,2008-04-06T09:00:00Z,28.8332,-90.8320,1007.11,11111222 
WAVCIS,ioos:station:WAVCIS:CSI15:1,2008-04-06T10:00:00Z,28.8332,-90.8320,1007.25,11111222 
WAVCIS,ioos:station:WAVCIS:CSI15:1,2008-04-06T11:00:00Z,28.8332,-90.8320,1007.45,11111222 
WAVCIS,ioos:station:WAVCIS:CSI15:1,2008-04-06T12:00:00Z,28.8332,-90.8320,1008.19,11111222 
WAVCIS,ioos:station:WAVCIS:CSI15:1,2008-04-06T13:00:00Z,28.8332,-90.8320,1008.75,11111222 
WAVCIS,ioos:station:WAVCIS:CSI15:1,2008-04-06T14:00:00Z,28.8332,-90.8320,1008.82,11111222 
WAVCIS,ioos:station:WAVCIS:CSI15:1,2008-04-06T15:00:00Z,28.8332,-90.8320,1009.07,11111222 
WAVCIS,ioos:station:WAVCIS:CSI15:1,2008-04-06T16:00:00Z,28.8332,-90.8320,1009.33,11111222 
WAVCIS,ioos:station:WAVCIS:CSI15:1,2008-04-06T17:00:00Z,28.8332,-90.8320,1009.88,11111222 
WAVCIS,ioos:station:WAVCIS:CSI15:1,2008-04-06T18:00:00Z,28.8332,-90.8320,1009.53,11111222 
WAVCIS,ioos:station:WAVCIS:CSI15:1,2008-04-06T19:00:00Z,28.8332,-90.8320,1009.07,11111222 
WAVCIS,ioos:station:WAVCIS:CSI15:1,2008-04-06T20:00:00Z,28.8332,-90.8320,1008.64,11111222 
WAVCIS,ioos:station:WAVCIS:CSI15:1,2008-04-06T21:00:00Z,28.8332,-90.8320,1008.41,11111222 
WAVCIS,ioos:station:WAVCIS:CSI15:1,2008-04-06T22:00:00Z,28.8332,-90.8320,1008.06,11111222 
WAVCIS,ioos:station:WAVCIS:CSI15:1,2008-04-06T23:00:00Z,28.8332,-90.8320,1008.35,11111222 
WAVCIS,ioos:station:WAVCIS:CSI15:1,2008-04-07T00:00:00Z,28.8332,-90.8320,1008.37,11111222 
WAVCIS,ioos:station:WAVCIS:CSI15:1,2008-04-07T01:00:00Z,28.8332,-90.8320,1008.75,11111222 
WAVCIS,ioos:station:WAVCIS:CSI15:1,2008-04-07T02:00:00Z,28.8332,-90.8320,1009.35,11111222 
WAVCIS,ioos:station:WAVCIS:CSI15:1,2008-04-07T03:00:00Z,28.8332,-90.8320,1009.78,11111222 
WAVCIS,ioos:station:WAVCIS:CSI15:1,2008-04-07T04:00:00Z,28.8332,-90.8320,1009.3,11111222 
WAVCIS,ioos:station:WAVCIS:CSI15:1,2008-04-07T05:00:00Z,28.8332,-90.8320,1009.34,11111222 
WAVCIS,ioos:station:WAVCIS:CSI15:1,2008-04-07T06:00:00Z,28.8332,-90.8320,1009.5,11111222 
WAVCIS,ioos:station:WAVCIS:CSI15:1,2008-04-07T07:00:00Z,28.8332,-90.8320,1009.2,11111222 
WAVCIS,ioos:station:WAVCIS:CSI15:1,2008-04-07T08:00:00Z,28.8332,-90.8320,1009.03,11111222 
WAVCIS,ioos:station:WAVCIS:CSI15:1,2008-04-07T09:00:00Z,28.8332,-90.8320,1008.87,11111222 
WAVCIS,ioos:station:WAVCIS:CSI15:1,2008-04-07T10:00:00Z,28.8332,-90.8320,1009.07,11111222 
WAVCIS,ioos:station:WAVCIS:CSI15:1,2008-04-07T11:00:00Z,28.8332,-90.8320,1009.29,11111222 
WAVCIS,ioos:station:WAVCIS:CSI15:1,2008-04-07T12:00:00Z,28.8332,-90.8320,1009.72,11111222 
WAVCIS,ioos:station:WAVCIS:CSI15:1,2008-04-07T13:00:00Z,28.8332,-90.8320,1010.73,11111222 
WAVCIS,ioos:station:WAVCIS:CSI15:1,2008-04-07T14:00:00Z,28.8332,-90.8320,1010.75,11111222 
WAVCIS,ioos:station:WAVCIS:CSI15:1,2008-04-07T15:00:00Z,28.8332,-90.8320,1010.99,11111222 
WAVCIS,ioos:station:WAVCIS:CSI15:1,2008-04-07T16:00:00Z,28.8332,-90.8320,1010.96,11111222 
WAVCIS,ioos:station:WAVCIS:CSI15:1,2008-04-07T17:00:00Z,28.8332,-90.8320,1011.13,11111222 
WAVCIS,ioos:station:WAVCIS:CSI15:1,2008-04-07T18:00:00Z,28.8332,-90.8320,1011.17,11111222 
WAVCIS,ioos:station:WAVCIS:CSI15:1,2008-04-07T19:00:00Z,28.8332,-90.8320,1010.98,11111222 
WAVCIS,ioos:station:WAVCIS:CSI15:1,2008-04-07T20:00:00Z,28.8332,-90.8320,1010.59,11111222 
WAVCIS,ioos:station:WAVCIS:CSI15:1,2008-04-07T21:00:00Z,28.8332,-90.8320,1009.89,11111222 
WAVCIS,ioos:station:WAVCIS:CSI15:1,2008-04-07T22:00:00Z,28.8332,-90.8320,1009.59,11111222 
WAVCIS,ioos:station:WAVCIS:CSI15:1,2008-04-07T23:00:00Z,28.8332,-90.8320,1009.43,11111222 
WAVCIS,ioos:station:WAVCIS:CSI15:1,2008-04-08T00:00:00Z,28.8332,-90.8320,1009.48,11111222 
WAVCIS,ioos:station:WAVCIS:CSI15:1,2008-04-08T01:00:00Z,28.8332,-90.8320,1010.01,11111222 
WAVCIS,ioos:station:WAVCIS:CSI15:1,2008-04-08T02:00:00Z,28.8332,-90.8320,1010.24,11111222 
WAVCIS,ioos:station:WAVCIS:CSI15:1,2008-04-08T03:00:00Z,28.8332,-90.8320,1010.17,11111222 
WAVCIS,ioos:station:WAVCIS:CSI15:1,2008-04-08T04:00:00Z,28.8332,-90.8320,1010.3,11111222 
WAVCIS,ioos:station:WAVCIS:CSI15:1,2008-04-08T05:00:00Z,28.8332,-90.8320,1009.91,11111222 
WAVCIS,ioos:station:WAVCIS:CSI15:1,2008-04-08T06:00:00Z,28.8332,-90.8320,1009.79,11111222 
WAVCIS,ioos:station:WAVCIS:CSI15:1,2008-04-08T07:00:00Z,28.8332,-90.8320,1009.78,11111222 
WAVCIS,ioos:station:WAVCIS:CSI15:1,2008-04-08T08:00:00Z,28.8332,-90.8320,1009.43,11111222 
WAVCIS,ioos:station:WAVCIS:CSI15:1,2008-04-08T09:00:00Z,28.8332,-90.8320,1008.94,11111222 
WAVCIS,ioos:station:WAVCIS:CSI15:1,2008-04-08T10:00:00Z,28.8332,-90.8320,1008.73,11111222 
WAVCIS,ioos:station:WAVCIS:CSI15:1,2008-04-08T11:00:00Z,28.8332,-90.8320,1009.02,11111222 
WAVCIS,ioos:station:WAVCIS:CSI15:1,2008-04-08T12:00:00Z,28.8332,-90.8320,1009.36,11111222 
WAVCIS,ioos:station:WAVCIS:CSI15:1,2008-04-08T13:00:00Z,28.8332,-90.8320,1010.11,11111222 
WAVCIS,ioos:station:WAVCIS:CSI15:1,2008-04-08T14:00:00Z,28.8332,-90.8320,1010.32,11111222 
WAVCIS,ioos:station:WAVCIS:CSI15:1,2008-04-08T15:00:00Z,28.8332,-90.8320,1010.97,11111222 
WAVCIS,ioos:station:WAVCIS:CSI15:1,2008-04-08T16:00:00Z,28.8332,-90.8320,1011.6,11111222 
WAVCIS,ioos:station:WAVCIS:CSI15:1,2008-04-08T17:00:00Z,28.8332,-90.8320,1011.5,11111222 
WAVCIS,ioos:station:WAVCIS:CSI15:1,2008-04-08T18:00:00Z,28.8332,-90.8320,1011.25,11111222 
WAVCIS,ioos:station:WAVCIS:CSI15:1,2008-04-08T19:00:00Z,28.8332,-90.8320,1010.75,11111222 
WAVCIS,ioos:station:WAVCIS:CSI15:1,2008-04-08T20:00:00Z,28.8332,-90.8320,1010.24,11111222 
WAVCIS,ioos:station:WAVCIS:CSI15:1,2008-04-08T21:00:00Z,28.8332,-90.8320,1009.83,11111222 
WAVCIS,ioos:station:WAVCIS:CSI15:1,2008-04-08T22:00:00Z,28.8332,-90.8320,1009.54,11111222 
WAVCIS,ioos:station:WAVCIS:CSI15:1,2008-04-08T23:00:00Z,28.8332,-90.8320,1009.89,11111222 
WAVCIS,ioos:station:WAVCIS:CSI15:1,2008-04-09T00:00:00Z,28.8332,-90.8320,1010.01,11111222 
WAVCIS,ioos:station:WAVCIS:CSI15:1,2008-04-09T01:00:00Z,28.8332,-90.8320,1010.24,11111222 
WAVCIS,ioos:station:WAVCIS:CSI15:1,2008-04-09T02:00:00Z,28.8332,-90.8320,1010.2,11111222 
WAVCIS,ioos:station:WAVCIS:CSI15:1,2008-04-09T03:00:00Z,28.8332,-90.8320,1010.48,11111222 
WAVCIS,ioos:station:WAVCIS:CSI15:1,2008-04-09T04:00:00Z,28.8332,-90.8320,1011.05,11111222 
WAVCIS,ioos:station:WAVCIS:CSI15:1,2008-04-09T05:00:00Z,28.8332,-90.8320,1011.0,11111222 
WAVCIS,ioos:station:WAVCIS:CSI15:1,2008-04-09T06:00:00Z,28.8332,-90.8320,1011.03,11111222 
WAVCIS,ioos:station:WAVCIS:CSI15:1,2008-04-09T07:00:00Z,28.8332,-90.8320,1010.69,11111222 
WAVCIS,ioos:station:WAVCIS:CSI15:1,2008-04-09T08:00:00Z,28.8332,-90.8320,1010.11,11111222 
WAVCIS,ioos:station:WAVCIS:CSI15:1,2008-04-09T09:00:00Z,28.8332,-90.8320,1009.98,11111222 
WAVCIS,ioos:station:WAVCIS:CSI15:1,2008-04-09T10:00:00Z,28.8332,-90.8320,1009.82,11111222 
WAVCIS,ioos:station:WAVCIS:CSI15:1,2008-04-09T11:00:00Z,28.8332,-90.8320,1010.25,11111222 
WAVCIS,ioos:station:WAVCIS:CSI15:1,2008-04-09T12:00:00Z,28.8332,-90.8320,1010.93,11111222 
WAVCIS,ioos:station:WAVCIS:CSI15:1,2008-04-09T13:00:00Z,28.8332,-90.8320,1011.31,11111222 
WAVCIS,ioos:station:WAVCIS:CSI15:1,2008-04-09T15:00:00Z,28.8332,-90.8320,1012.04,11111222 
WAVCIS,ioos:station:WAVCIS:CSI15:1,2008-04-09T16:00:00Z,28.8332,-90.8320,1012.56,11111222 
WAVCIS,ioos:station:WAVCIS:CSI15:1,2008-04-09T17:00:00Z,28.8332,-90.8320,1012.56,11111222 
WAVCIS,ioos:station:WAVCIS:CSI15:1,2008-04-09T18:00:00Z,28.8332,-90.8320,1011.84,11111222 
WAVCIS,ioos:station:WAVCIS:CSI15:1,2008-04-09T19:00:00Z,28.8332,-90.8320,1011.58,11111222 
WAVCIS,ioos:station:WAVCIS:CSI15:1,2008-04-09T20:00:00Z,28.8332,-90.8320,1010.93,11111222 
WAVCIS,ioos:station:WAVCIS:CSI15:1,2008-04-09T21:00:00Z,28.8332,-90.8320,1010.23,11111222 
WAVCIS,ioos:station:WAVCIS:CSI15:1,2008-04-09T22:00:00Z,28.8332,-90.8320,1009.79,11111222 
WAVCIS,ioos:station:WAVCIS:CSI15:1,2008-04-09T23:00:00Z,28.8332,-90.8320,1009.24,11111222 
WAVCIS,ioos:station:WAVCIS:CSI15:1,2008-04-10T00:00:00Z,28.8332,-90.8320,1009.15,11111222 
WAVCIS,ioos:station:WAVCIS:CSI15:1,2008-04-10T01:00:00Z,28.8332,-90.8320,1009.12,11111222 
WAVCIS,ioos:station:WAVCIS:CSI15:1,2008-04-10T02:00:00Z,28.8332,-90.8320,1009.42,11111222 
WAVCIS,ioos:station:WAVCIS:CSI15:1,2008-04-10T03:00:00Z,28.8332,-90.8320,1009.4,11111222 
WAVCIS,ioos:station:WAVCIS:CSI15:1,2008-04-10T04:00:00Z,28.8332,-90.8320,1009.27,11111222 
WAVCIS,ioos:station:WAVCIS:CSI15:1,2008-04-10T05:00:00Z,28.8332,-90.8320,1008.56,11111222 
WAVCIS,ioos:station:WAVCIS:CSI15:1,2008-04-10T06:00:00Z,28.8332,-90.8320,1007.75,11111222 
WAVCIS,ioos:station:WAVCIS:CSI15:1,2008-04-10T07:00:00Z,28.8332,-90.8320,1007.1,11111222 
WAVCIS,ioos:station:WAVCIS:CSI15:1,2008-04-10T08:00:00Z,28.8332,-90.8320,1006.522,11111222 
WAVCIS,ioos:station:WAVCIS:CSI15:1,2008-04-10T09:00:00Z,28.8332,-90.8320,1005.211,11111222 
WAVCIS,ioos:station:WAVCIS:CSI15:1,2008-04-10T10:00:00Z,28.8332,-90.8320,1005.297,11111222 
WAVCIS,ioos:station:WAVCIS:CSI15:1,2008-04-10T11:00:00Z,28.8332,-90.8320,1005.443,11111222 
WAVCIS,ioos:station:WAVCIS:CSI15:1,2008-04-10T12:00:00Z,28.8332,-90.8320,1005.665,11111222 
WAVCIS,ioos:station:WAVCIS:CSI15:1,2008-04-10T13:00:00Z,28.8332,-90.8320,1005.942,11111222 
WAVCIS,ioos:station:WAVCIS:CSI15:1,2008-04-10T14:00:00Z,28.8332,-90.8320,1006.347,11111222 
WAVCIS,ioos:station:WAVCIS:CSI15:1,2008-04-10T15:00:00Z,28.8332,-90.8320,1006.907,11111222 
WAVCIS,ioos:station:WAVCIS:CSI15:1,2008-04-10T16:00:00Z,28.8332,-90.8320,1007.57,11111222 
WAVCIS,ioos:station:WAVCIS:CSI15:1,2008-04-10T17:00:00Z,28.8332,-90.8320,1007.56,11111222 
WAVCIS,ioos:station:WAVCIS:CSI15:1,2008-04-10T18:00:00Z,28.8332,-90.8320,1007.15,11111222 
WAVCIS,ioos:station:WAVCIS:CSI15:1,2008-04-10T19:00:00Z,28.8332,-90.8320,1006.716,11111222 
WAVCIS,ioos:station:WAVCIS:CSI15:1,2008-04-10T20:00:00Z,28.8332,-90.8320,1006.722,11111222 
WAVCIS,ioos:station:WAVCIS:CSI15:1,2008-04-10T21:00:00Z,28.8332,-90.8320,1005.93,11111222 
WAVCIS,ioos:station:WAVCIS:CSI15:1,2008-04-10T22:00:00Z,28.8332,-90.8320,1006.1,11111222 
WAVCIS,ioos:station:WAVCIS:CSI15:1,2008-04-10T23:00:00Z,28.8332,-90.8320,1006.117,11111222 
WAVCIS,ioos:station:WAVCIS:CSI15:1,2008-04-11T00:00:00Z,28.8332,-90.8320,1006.319,11111222 
WAVCIS,ioos:station:WAVCIS:CSI15:1,2008-04-11T01:00:00Z,28.8332,-90.8320,1006.626,11111222 
WAVCIS,ioos:station:WAVCIS:CSI15:1,2008-04-11T02:00:00Z,28.8332,-90.8320,1006.94,11111222 
WAVCIS,ioos:station:WAVCIS:CSI15:1,2008-04-11T03:00:00Z,28.8332,-90.8320,1007.1,11111222 
WAVCIS,ioos:station:WAVCIS:CSI15:1,2008-04-11T04:00:00Z,28.8332,-90.8320,1007.68,11111222 
WAVCIS,ioos:station:WAVCIS:CSI15:1,2008-04-11T05:00:00Z,28.8332,-90.8320,1007.65,11111222 
WAVCIS,ioos:station:WAVCIS:CSI15:1,2008-04-11T06:00:00Z,28.8332,-90.8320,1007.52,11111222 
WAVCIS,ioos:station:WAVCIS:CSI15:1,2008-04-11T07:00:00Z,28.8332,-90.8320,1007.16,11111222 
WAVCIS,ioos:station:WAVCIS:CSI15:1,2008-04-11T08:00:00Z,28.8332,-90.8320,1006.807,11111222 
WAVCIS,ioos:station:WAVCIS:CSI15:1,2008-04-11T09:00:00Z,28.8332,-90.8320,1006.638,11111222 
WAVCIS,ioos:station:WAVCIS:CSI15:1,2008-04-11T10:00:00Z,28.8332,-90.8320,1006.65,11111222 
WAVCIS,ioos:station:WAVCIS:CSI15:1,2008-04-11T11:00:00Z,28.8332,-90.8320,1007.029,11111222 
WAVCIS,ioos:station:WAVCIS:CSI15:1,2008-04-11T12:00:00Z,28.8332,-90.8320,1007.48,11111222 
WAVCIS,ioos:station:WAVCIS:CSI15:1,2008-04-11T13:00:00Z,28.8332,-90.8320,1007.9,11111222 
WAVCIS,ioos:station:WAVCIS:CSI15:1,2008-04-11T14:00:00Z,28.8332,-90.8320,1008.4,11111222 
WAVCIS,ioos:station:WAVCIS:CSI15:1,2008-04-11T16:00:00Z,28.8332,-90.8320,1009.49,11111222 
WAVCIS,ioos:station:WAVCIS:CSI15:1,2008-04-11T17:00:00Z,28.8332,-90.8320,1009.21,11111222 
WAVCIS,ioos:station:WAVCIS:CSI15:1,2008-04-11T18:00:00Z,28.8332,-90.8320,1008.74,11111222 
WAVCIS,ioos:station:WAVCIS:CSI15:1,2008-04-11T19:00:00Z,28.8332,-90.8320,1008.7,11111222 
WAVCIS,ioos:station:WAVCIS:CSI15:1,2008-04-11T20:00:00Z,28.8332,-90.8320,1008.24,11111222 
WAVCIS,ioos:station:WAVCIS:CSI15:1,2008-04-11T21:00:00Z,28.8332,-90.8320,1007.81,11111222 
WAVCIS,ioos:station:WAVCIS:CSI15:1,2008-04-11T22:00:00Z,28.8332,-90.8320,1007.35,11111222 
WAVCIS,ioos:station:WAVCIS:CSI15:1,2008-04-11T23:00:00Z,28.8332,-90.8320,1007.24,11111222 
WAVCIS,ioos:station:WAVCIS:CSI15:1,2008-04-12T00:00:00Z,28.8332,-90.8320,1007.25,11111222 
WAVCIS,ioos:station:WAVCIS:CSI15:1,2008-04-12T01:00:00Z,28.8332,-90.8320,1007.41,11111222 
WAVCIS,ioos:station:WAVCIS:CSI15:1,2008-04-12T02:00:00Z,28.8332,-90.8320,1008.07,11111222 
WAVCIS,ioos:station:WAVCIS:CSI15:1,2008-04-12T03:00:00Z,28.8332,-90.8320,1008.62,11111222 
WAVCIS,ioos:station:WAVCIS:CSI15:1,2008-04-12T04:00:00Z,28.8332,-90.8320,1008.97,11111222 
WAVCIS,ioos:station:WAVCIS:CSI15:1,2008-04-12T05:00:00Z,28.8332,-90.8320,1008.92,11111222 
WAVCIS,ioos:station:WAVCIS:CSI15:1,2008-04-12T06:00:00Z,28.8332,-90.8320,1009.03,11111222 
WAVCIS,ioos:station:WAVCIS:CSI15:1,2008-04-12T07:00:00Z,28.8332,-90.8320,1008.67,11111222 
WAVCIS,ioos:station:WAVCIS:CSI15:1,2008-04-12T08:00:00Z,28.8332,-90.8320,1008.8,11111222 
WAVCIS,ioos:station:WAVCIS:CSI15:1,2008-04-12T09:00:00Z,28.8332,-90.8320,1009.07,11111222 
WAVCIS,ioos:station:WAVCIS:CSI15:1,2008-04-12T10:00:00Z,28.8332,-90.8320,1010.46,11111222 
WAVCIS,ioos:station:WAVCIS:CSI15:1,2008-04-12T11:00:00Z,28.8332,-90.8320,1010.95,11111222 
WAVCIS,ioos:station:WAVCIS:CSI15:1,2008-04-12T12:00:00Z,28.8332,-90.8320,1011.65,11111222 
WAVCIS,ioos:station:WAVCIS:CSI15:1,2008-04-12T13:00:00Z,28.8332,-90.8320,1012.81,11111222 
WAVCIS,ioos:station:WAVCIS:CSI15:1,2008-04-12T14:00:00Z,28.8332,-90.8320,1012.98,11111222 
WAVCIS,ioos:station:WAVCIS:CSI15:1,2008-04-12T15:00:00Z,28.8332,-90.8320,1014.2,11111222 
WAVCIS,ioos:station:WAVCIS:CSI15:1,2008-04-12T16:00:00Z,28.8332,-90.8320,1015.14,11111222 
WAVCIS,ioos:station:WAVCIS:CSI15:1,2008-04-12T17:00:00Z,28.8332,-90.8320,1014.53,11111222 
WAVCIS,ioos:station:WAVCIS:CSI15:1,2008-04-12T18:00:00Z,28.8332,-90.8320,1014.24,11111222 
WAVCIS,ioos:station:WAVCIS:CSI15:1,2008-04-12T19:00:00Z,28.8332,-90.8320,1013.65,11111222 
WAVCIS,ioos:station:WAVCIS:CSI15:1,2008-04-12T20:00:00Z,28.8332,-90.8320,1013.52,11111222 
WAVCIS,ioos:station:WAVCIS:CSI15:1,2008-04-12T21:00:00Z,28.8332,-90.8320,1013.13,11111222 
WAVCIS,ioos:station:WAVCIS:CSI15:1,2008-04-12T22:00:00Z,28.8332,-90.8320,1013.12,11111222 
WAVCIS,ioos:station:WAVCIS:CSI15:1,2008-04-12T23:00:00Z,28.8332,-90.8320,1013.19,11111222 
WAVCIS,ioos:station:WAVCIS:CSI15:1,2008-04-13T00:00:00Z,28.8332,-90.8320,1013.44,11111222 
WAVCIS,ioos:station:WAVCIS:CSI15:1,2008-04-13T01:00:00Z,28.8332,-90.8320,1013.73,11111222 
WAVCIS,ioos:station:WAVCIS:CSI15:1,2008-04-13T02:00:00Z,28.8332,-90.8320,1013.97,11111222 
WAVCIS,ioos:station:WAVCIS:CSI15:1,2008-04-13T03:00:00Z,28.8332,-90.8320,1014.6,11111222 
WAVCIS,ioos:station:WAVCIS:CSI15:1,2008-04-13T04:00:00Z,28.8332,-90.8320,1015.29,11111222 
WAVCIS,ioos:station:WAVCIS:CSI15:1,2008-04-13T05:00:00Z,28.8332,-90.8320,1015.53,11111222 
WAVCIS,ioos:station:WAVCIS:CSI15:1,2008-04-13T06:00:00Z,28.8332,-90.8320,1015.91,11111222 
WAVCIS,ioos:station:WAVCIS:CSI15:1,2008-04-13T07:00:00Z,28.8332,-90.8320,1016.08,11111222 
WAVCIS,ioos:station:WAVCIS:CSI15:1,2008-04-13T08:00:00Z,28.8332,-90.8320,1015.43,11111222 
WAVCIS,ioos:station:WAVCIS:CSI15:1,2008-04-13T09:00:00Z,28.8332,-90.8320,1015.29,11111222 
WAVCIS,ioos:station:WAVCIS:CSI15:1,2008-04-13T10:00:00Z,28.8332,-90.8320,1015.76,11111222 
WAVCIS,ioos:station:WAVCIS:CSI15:1,2008-04-13T11:00:00Z,28.8332,-90.8320,1016.66,11111222 
WAVCIS,ioos:station:WAVCIS:CSI15:1,2008-04-13T12:00:00Z,28.8332,-90.8320,1017.62,11111222 
WAVCIS,ioos:station:WAVCIS:CSI15:1,2008-04-13T13:00:00Z,28.8332,-90.8320,1018.03,11111222 
WAVCIS,ioos:station:WAVCIS:CSI15:1,2008-04-13T14:00:00Z,28.8332,-90.8320,1018.58,11111222 
WAVCIS,ioos:station:WAVCIS:CSI15:1,2008-04-13T15:00:00Z,28.8332,-90.8320,1018.96,11111222 
WAVCIS,ioos:station:WAVCIS:CSI15:1,2008-04-13T16:00:00Z,28.8332,-90.8320,1019.4,11111222 
WAVCIS,ioos:station:WAVCIS:CSI15:1,2008-04-13T17:00:00Z,28.8332,-90.8320,1019.32,11111222 
WAVCIS,ioos:station:WAVCIS:CSI15:1,2008-04-13T18:00:00Z,28.8332,-90.8320,1018.88,11111222 
WAVCIS,ioos:station:WAVCIS:CSI15:1,2008-04-13T19:00:00Z,28.8332,-90.8320,1018.22,11111222 
WAVCIS,ioos:station:WAVCIS:CSI15:1,2008-04-13T20:00:00Z,28.8332,-90.8320,1017.14,11111222 
WAVCIS,ioos:station:WAVCIS:CSI15:1,2008-04-13T21:00:00Z,28.8332,-90.8320,1016.56,11111222 
WAVCIS,ioos:station:WAVCIS:CSI15:1,2008-04-13T22:00:00Z,28.8332,-90.8320,1016.09,11111222 
WAVCIS,ioos:station:WAVCIS:CSI15:1,2008-04-13T23:00:00Z,28.8332,-90.8320,1015.76,11111222 
WAVCIS,ioos:station:WAVCIS:CSI15:1,2008-04-14T00:00:00Z,28.8332,-90.8320,1015.95,11111222 
WAVCIS,ioos:station:WAVCIS:CSI15:1,2008-04-14T01:00:00Z,28.8332,-90.8320,1016.06,11111222 
WAVCIS,ioos:station:WAVCIS:CSI15:1,2008-04-14T02:00:00Z,28.8332,-90.8320,1016.23,11111222 
WAVCIS,ioos:station:WAVCIS:CSI15:1,2008-04-14T03:00:00Z,28.8332,-90.8320,1016.83,11111222 
WAVCIS,ioos:station:WAVCIS:CSI15:1,2008-04-14T04:00:00Z,28.8332,-90.8320,1017.29,11111222 
WAVCIS,ioos:station:WAVCIS:CSI15:1,2008-04-14T05:00:00Z,28.8332,-90.8320,1017.73,11111222 
WAVCIS,ioos:station:WAVCIS:CSI15:1,2008-04-14T06:00:00Z,28.8332,-90.8320,1017.93,11111222 
WAVCIS,ioos:station:WAVCIS:CSI15:1,2008-04-14T07:00:00Z,28.8332,-90.8320,1017.87,11111222 
WAVCIS,ioos:station:WAVCIS:CSI15:1,2008-04-14T08:00:00Z,28.8332,-90.8320,1017.7,11111222 
WAVCIS,ioos:station:WAVCIS:CSI15:1,2008-04-14T09:00:00Z,28.8332,-90.8320,1017.58,11111222 
WAVCIS,ioos:station:WAVCIS:CSI15:1,2008-04-14T10:00:00Z,28.8332,-90.8320,1017.88,11111222 
WAVCIS,ioos:station:WAVCIS:CSI15:1,2008-04-14T11:00:00Z,28.8332,-90.8320,1018.27,11111222 
WAVCIS,ioos:station:WAVCIS:CSI15:1,2008-04-14T12:00:00Z,28.8332,-90.8320,1018.83,11111222 
WAVCIS,ioos:station:WAVCIS:CSI15:1,2008-04-14T13:00:00Z,28.8332,-90.8320,1019.54,11111222 
WAVCIS,ioos:station:WAVCIS:CSI15:1,2008-04-14T14:00:00Z,28.8332,-90.8320,1019.87,11111222 
WAVCIS,ioos:station:WAVCIS:CSI15:1,2008-04-14T15:00:00Z,28.8332,-90.8320,1020.22,11111222 
WAVCIS,ioos:station:WAVCIS:CSI15:1,2008-04-14T16:00:00Z,28.8332,-90.8320,1020.43,11111222 
WAVCIS,ioos:station:WAVCIS:CSI15:1,2008-04-14T17:00:00Z,28.8332,-90.8320,1020.38,11111222 
WAVCIS,ioos:station:WAVCIS:CSI15:1,2008-04-14T18:00:00Z,28.8332,-90.8320,1019.94,11111222 
WAVCIS,ioos:station:WAVCIS:CSI15:1,2008-04-14T19:00:00Z,28.8332,-90.8320,1019.42,11111222 
WAVCIS,ioos:station:WAVCIS:CSI15:1,2008-04-14T20:00:00Z,28.8332,-90.8320,1018.98,11111222 
WAVCIS,ioos:station:WAVCIS:CSI15:1,2008-04-14T21:00:00Z,28.8332,-90.8320,1018.15,11111222 
WAVCIS,ioos:station:WAVCIS:CSI15:1,2008-04-14T22:00:00Z,28.8332,-90.8320,1017.78,11111222 
WAVCIS,ioos:station:WAVCIS:CSI15:1,2008-04-14T23:00:00Z,28.8332,-90.8320,1017.84,11111222 
WAVCIS,ioos:station:WAVCIS:CSI15:1,2008-04-15T00:00:00Z,28.8332,-90.8320,1018.19,11111222 
WAVCIS,ioos:station:WAVCIS:CSI15:1,2008-04-15T01:00:00Z,28.8332,-90.8320,1018.62,11111222 
WAVCIS,ioos:station:WAVCIS:CSI15:1,2008-04-15T02:00:00Z,28.8332,-90.8320,1019.51,11111222 
WAVCIS,ioos:station:WAVCIS:CSI15:1,2008-04-15T03:00:00Z,28.8332,-90.8320,1020.6,11111222 
WAVCIS,ioos:station:WAVCIS:CSI15:1,2008-04-15T04:00:00Z,28.8332,-90.8320,1021.03,11111222 
WAVCIS,ioos:station:WAVCIS:CSI15:1,2008-04-15T05:00:00Z,28.8332,-90.8320,1021.02,11111222 
WAVCIS,ioos:station:WAVCIS:CSI15:1,2008-04-15T06:00:00Z,28.8332,-90.8320,1021.02,11111222 
WAVCIS,ioos:station:WAVCIS:CSI15:1,2008-04-15T07:00:00Z,28.8332,-90.8320,1020.73,11111222 
WAVCIS,ioos:station:WAVCIS:CSI15:1,2008-04-15T08:00:00Z,28.8332,-90.8320,1020.62,11111222 
WAVCIS,ioos:station:WAVCIS:CSI15:1,2008-04-15T09:00:00Z,28.8332,-90.8320,1020.43,11111222 
WAVCIS,ioos:station:WAVCIS:CSI15:1,2008-04-15T10:00:00Z,28.8332,-90.8320,1020.79,11111222 
WAVCIS,ioos:station:WAVCIS:CSI15:1,2008-04-15T11:00:00Z,28.8332,-90.8320,1020.96,11111222 
WAVCIS,ioos:station:WAVCIS:CSI15:1,2008-04-15T12:00:00Z,28.8332,-90.8320,1021.37,11111222 
WAVCIS,ioos:station:WAVCIS:CSI15:1,2008-04-15T13:00:00Z,28.8332,-90.8320,1022.15,11111222 
WAVCIS,ioos:station:WAVCIS:CSI15:1,2008-04-15T14:00:00Z,28.8332,-90.8320,1022.79,11111222 